HULIANWANG DIGUI-37

导读

HULIANWANG DIGUI-37是中国于北京时间2025年7月27日发射的卫星互联网低轨卫星,该卫星属于卫星互联网低轨05组卫星。此次发射任务在中国太原卫星发射中心完成,由长征六号改运载火箭搭载,卫星顺利进入预定轨道,发射任务取得圆满成功。该卫星将服务于我国卫星互联网建设,提供泛在、高速的天基互联网接入服务。

基本信息
目录编号:
64958
目录名称:
HULIANWANG DIGUI-37
国际标识:
2025-159C
轨道中心:
EARTH
卫星名称:
HULIANWANG DIGUI-37
卫星全名:
HULIANWANG DIGUI-37
卫星状态:
在轨 (已飞行320 天)
发射日期:
2025-07-27 UTC
国别 :
中国 (CN)
星等 :
--
轨道信息
数据来源 国际轨道数据 AOE轨道数据
星历时间 2026-06-12T14:05:18+0800
13小时前
查看轨道信息
2026-06-11T06:00:00+0800
1天前
查看轨道信息
半长轴 7546.069km 7546.068km
偏心率 0.0001908 0.0001764
轨道倾角 86.490° 86.488°
近地点辐角 95.875° 103.341°
升交点赤经 283.961° 284.409°
平近点角 264.260° 5.702°
近地点 1166.492km 1166.599km
远地点 1169.372km 1169.263km
周期 108.728分钟 108.728分钟
每日圈数 13.244076 13.244079
详细信息
使用方式:
暂无
2D轨道图
3D轨道图
轨道高度分析图
轨道倾角分析图
轨道综合分析图
查看轨道综合分析图